Regional Weather Roundup
Issued by NWS Cleveland, OH

Home | Current Version | Previous Version | Text Only | Print | Product List | Glossary Off
Versions: 1 2 3 4 5 6 7 8 9 10 11 12 13 14 15 16 17 18 19 20 21 22 23 24 25 26 27 28 29 30 31 32 33 34 35 36 37 38 39 40 41 42 43 44 45 46 47 48 49 50

000
ASUS41 KCLE 281702
RWRCLE
OHIO REGIONAL WEATHER ROUNDUP
NATIONAL WEATHER SERVICE CLEVELAND, OH
100 PM EDT SUN MAY 28 2017

NOTE: "FAIR" INDICATES FEW OR NO CLOUDS BELOW 12,000 FEET WITH NO
SIGNIFICANT WEATHER AND/OR OBSTRUCTIONS TO VISIBILITY.

OHZ001>008-015>018-024>027-034-035-043-044-281800-
   NORTHWEST OHIO

CITY           SKY/WX    TMP DP  RH WIND       PRES   REMARKS
DEFIANCE       PTSUNNY   71  64  78 S5        29.73F
FINDLAY        CLOUDY    71  64  78 S10       29.74R HAZE
TOLEDO EXPRESS CLOUDY    71  67  87 S5        29.73S
TOLEDO EXEC    CLOUDY    75  67  76 SE3       29.73S
LIMA           CLOUDY    74  67  78 S8        29.74S
$$

OHZ009>014-019>023-028>033-038-089-281800-
   NORTHEAST OHIO

CITY           SKY/WX    TMP DP  RH WIND       PRES   REMARKS
CLE-HOPKINS    CLOUDY    80  66  62 S12G18    29.75F
CLE-LAKEFRONT  CLOUDY    64  59  83 NE14      29.73F
CUY CO. ARPT   PTSUNNY   79  66  65 S8        29.75F
LORAIN-ELYRIA  CLOUDY    76  64  66 S12       29.75S
ASHTABULA      CLOUDY    76  63  64 S7        29.78F
AKRON-CANTON   CLOUDY    70  64  81 S9        29.78F HAZE
WOOSTER        CLOUDY    68  65  90 S8        29.78F
MANSFIELD      CLOUDY    73  66  78 S10       29.77F
YOUNGSTOWN     CLOUDY    76  63  64 S12       29.78F
$$

OHZ042-051>053-060>062-070>072-077>081-281800-
  SOUTHWEST OHIO

CITY           SKY/WX    TMP DP  RH WIND       PRES   REMARKS
CINC-COVINGTON CLOUDY    71  61  70 SW13G21   29.81R
CINC-LUNKEN    PTSUNNY   73  65  75 SW13      29.80S
HAMILTON       CLOUDY    74  64  71 W10       29.80R
DAYTON         CLOUDY    74  63  68 SW16      29.77S
WRIGHT-PAT AFB CLOUDY    75  65  71 SW17G24   29.76S
DAYTON GENERAL PTSUNNY   74  63  68 SW14G21   29.78R
WILMINGTON     CLOUDY    73  65  75 S17       29.77F
$$

OHZ036-037-039>041-045>050-054>059-063>069-073>076-082>088-281800-
  CENTRAL AND SOUTHEAST OHIO

CITY           SKY/WX    TMP DP  RH WIND       PRES   REMARKS
COLUMBUS       CLOUDY    73  64  73 S10G20    29.76F
OSU AIRPORT    CLOUDY    76  66  71 SW15      29.76F
BOLTON FIELD   MOSUNNY   73  64  73 SW12G24   29.78F
RICKENBACK AFB PTSUNNY   73  64  73 SW13      29.77F
NEWARK         CLOUDY    75  64  68 SW12G17   29.77S
MARION         CLOUDY    76  65  68 S14       29.76S
LANCASTER      PTSUNNY   76  65  68 S12       29.78F
ZANESVILLE     CLOUDY    78  64  61 S9        29.77F
NEW PHILLY     NOT AVBL
$$



USA.gov is the U.S. government's official web portal to all federal, state and local government web resources and services.